Location: Azul
(36.7830°S, 59.8500°W)
Time: 18:13:59
(UTC-03:00)

ZACube-1 - Pass Details

Date: 29 October 2021
Orbit: 584 x 664 km, 97.6° (Epoch: 07 December)

Event Time Altitude Azimuth Distance (km) Brightness Sun altitude
Rises 03:41:06 0° 47° (NE) 2,945 ? -24.5°
Reaches altitude 10° 03:43:41 10° 63° (ENE) 2,058 ? -24.1°
Maximum altitude 03:47:05 21° 112° (ESE) 1,465 ? -23.6°
Drops below altitude 10° 03:50:33 10° 161° (SSE) 2,105 ? -23.1°
Sets 03:53:14 0° 176° (S) 3,034 ? -22.7°
